Regional Weather Roundup
Issued by NWS Upton, NY

Current Version | Previous Version | Text Only | Print | Product List | Glossary Off
Versions: 1 2 3 4 5 6 7 8 9 10 11 12 13 14 15 16 17 18 19 20 21 22 23 24 25 26 27 28 29 30 31 32 33 34 35 36 37 38 39 40 41 42 43 44 45 46 47 48 49 50
000 ASUS41 KOKX 191913 RWROKX Regional Weather Roundup National Weather Service New York NY 300 PM EDT THU MAY 19 2022 Note: "FAIR" indicates few or no clouds below 12,000 feet with no significant weather and/or obstructions to visibility. NYZ071-072-176-178-NJZ106-104-192000- New York City Metro Area CITY SKY/WX TMP DP RH WIND PRES REMARKS Central Park CLOUDY 61 54 77 W5 29.75S World Trd Ctr NOT AVBL Bronx Lehman C N/A 61 54 77 W2 N/A LaGuardia Arpt CLOUDY 59 52 77 NE6 29.73R Queens College N/A 59 54 82 W3 N/A Kennedy Intl CLOUDY 59 53 80 VRB6 29.74R Breezy Point NOT AVBL Brooklyn Coll N/A 59 52 77 S7 N/A Staten Island N/A 57 32 38 S7 N/A Newark/Liberty CLOUDY 62 55 77 S7 29.73R Teterboro CLOUDY 60 53 77 SW3 29.72S $$ NYZ177-179-078>081-192000- Long Island New York CITY SKY/WX TMP DP RH WIND PRES REMARKS Jones Beach NOT AVBL Wantagh N/A 59 54 82 NW3 N/A Hempstead NOT AVBL Matinecock Pt NOT AVBL Farmingdale CLOUDY 58 52 80 N5 29.72F MacArthur/ISP CLOUDY 57 54 89 NE5 29.71F Stony Brook N/A 57 54 88 N1 N/A Shirley CLOUDY 56 51 84 VRB3 29.72R Mt Sinai Harb NOT AVBL Westhampton CLOUDY 55 53 93 NE7 29.73R East Hampton CLOUDY 52 52 99 NE7 29.71R Southold N/A 54 54 100 E7 N/A Montauk N/A 53 52 96 E7 29.71F $$ NYZ052-065-067-192000- Hudson Valley CITY SKY/WX TMP DP RH WIND PRES REMARKS White Plains CLOUDY 58 52 80 SW5 29.72R Larchmont Harb NOT AVBL Croton On Huds NOT AVBL Somers N/A 55 54 94 SE3 N/A Brewster N/A 57 54 88 S2 N/A Newburgh CLOUDY 61 55 82 SW7 29.70F Montgomery CLOUDY 59 54 83 SW5 29.70S Otisville N/A 61 55 82 SW3 N/A Warwick N/A 63 55 77 W9 N/A Suffern N/A 57 54 88 S2 N/A Poughkeepsie CLOUDY 60 54 80 VRB5 29.69S Albany LGT RAIN 59 55 87 S15 29.66S $$ NJZ001-105-106-008-010-013-015-019>022-104-192000- New Jersey CITY SKY/WX TMP DP RH WIND PRES REMARKS Newark/Liberty CLOUDY 62 55 77 S7 29.73R Teterboro CLOUDY 60 53 77 SW3 29.72S Caldwell CLOUDY 64 54 69 VRB6 29.73S Somerville CLOUDY 65 57 75 S5 29.71S Linden CLOUDY 59 53 82 SW3 29.75R Perth Amboy NOT AVBL Sussex CLOUDY 62 56 80 VRB5 29.72S Andover N/A 63 55 75 VRB5 29.72S Trenton CLOUDY 65 59 81 VRB5 29.73S Millville PTSUNNY 74 60 61 NW13G20 29.74S Atlantic City MOSUNNY 73 59 61 W12 29.73S Wrightstown CLOUDY 66 57 71 W9 29.73S Toms River NOT AVBL Belmar CLOUDY 61 58 90 NW5 29.75S $$ PAZ047>061-062-071-192000- Eastern Pennsylvania CITY SKY/WX TMP DP RH WIND PRES REMARKS Philadelphia MOSUNNY 74 59 59 W13 29.73F Allentown CLOUDY 66 58 75 W6 29.72F Scranton CLOUDY 64 57 78 SW8 29.71F $$ CTZ002-004>006-009-010-012-RIZ004-006-007-MAZ004-011-015-192000- Southern New England In CT CITY SKY/WX TMP DP RH WIND PRES REMARKS Bradley Intl CLOUDY 58 53 84 SW12 29.71F Hartford CLOUDY 60 54 80 S7 29.71F Danbury CLOUDY 59 52 77 S6 29.73R Wtrbury/Oxford CLOUDY 56 52 86 S8 29.72F Norwalk Harbor NOT AVBL Bridgeport CLOUDY 56 53 90 E8 29.73F Meriden CLOUDY 59 51 75 VRB7 29.71F New Haven CLOUDY 59 53 80 E7 29.72F Chester CLOUDY 55 54 94 CALM 29.73S Groton CLOUDY 55 52 89 E6 29.72F FOG Willimantic CLOUDY 55 52 89 SW3 29.73S In RI CITY SKY/WX TMP DP RH WIND PRES REMARKS Providence LGT RAIN 55 53 93 S9 29.72F FOG Block Island NOT AVBL Westerly CLOUDY 53 51 93 E8 29.72F FOG In MA CITY SKY/WX TMP DP RH WIND PRES REMARKS Boston CLOUDY 56 50 80 S9 29.73F Worcester CLOUDY 53 51 93 SW8 29.72S Westfield CLOUDY 57 53 86 S10 29.69F Provincetown CLOUDY 53 50 89 SE12G20 29.75F Nantucket LGT RAIN 53 51 93 E14 29.72F FOG $$ ANZ330-335-338-340-345-350-353-355-192000- Coastal Marine Observations STATION/POSITION TIME SKY/WX TEMP WIND PRES VSBY WAVE AIR SEA DIR/SP/G HT/PER (UTC) (F) (DEG/KT/KT) (MB) (MI) (FT/S) NY Harb Entrance 1850 55 30/ 6/ 6 1006.2 3/ 4 20 S Fire Island 1850 53 1005.4 3/ 5 Great South Bay NOT AVBL 23 SSW Montauk P 1850 52 80/ 16/ 19 1004.6 3/ 4 15 E Barnegat Li NOT AVBL Hudson Canyon NOT AVBL Kings Point 1830 57 57 290/ 1/ 2 1007.6 Execution Rocks 1845 58 10/ 4 N/A Western LI Sound 1830 56 70/ 6/ 8 N/A Central LI Sound NOT AVBL Robbins Reef 1830 56 180/ 9/ 10 1006.6 $$ >>>>>>>>>>>>>>>>>>>>>>>>>>>> KEY <<<<<<<<<<<<<<<<<<<<<<<<<<< > < > SKY/WX - Sky Condition/Present Weather < > TMP - Temperature in Fahrenheit < > DP - Dew Point in Fahrenheit < > RH - Relative Humidity in Percent < > WIND - Direction (from) and Speed in MPH < > PRES - Mean Sea Level Pressure (inches of Hg) < > WCI - Wind Chill Index < > VSB - Visibility in Miles < > HX - Heat Index < > TC - Temperature in Celsius < > VRB - Variable Wind Direction < > < >>>>>>>>>>>>>>>>>>>>>>>>>>>> KEY <<<<<<<<<<<<<<<<<<<<<<<<<<<

USA.gov is the U.S. government's official web portal to all federal, state and local government web resources and services.